Simultaneous Nadir Overpasses (SNOs) Predictions

Prediction of SNOs between GOES-17 and NOAA-19 Satellite Orbit:

Table of predicted SNOs for the next 14.0 days since TLE Epoch: 5/20/2023
Index Date Time (GOES-17) GOES-17 Lat,Lon NOAA-19 Lat,Lon Distance(km) Time Diff (sec)
1 05/20/2023 03:15:37 0.00,-104.71 0.88,-101.02 421.08 14
2 05/21/2023 15:46:39 0.00,-104.74 0.95,-108.72 454.68 80
3 05/22/2023 15:34:39 0.00,-104.74 0.23,-105.80 120.62 80
4 05/23/2023 15:25:17 0.01,-104.74 -0.42,-102.87 213.48 80
5 05/26/2023 03:45:26 0.00,-104.70 -0.67,-107.66 336.98 80
6 05/27/2023 03:33:25 0.02,-104.71 0.00,-104.73 3.05 80
7 05/28/2023 03:18:43 0.02,-104.71 0.68,-101.80 331.31 80
8 05/30/2023 15:38:52 -0.03,-104.75 0.41,-106.59 210.27 80
9 05/31/2023 15:29:31 -0.02,-104.75 -0.27,-103.66 124.23 80
10 06/01/2023 15:17:29 -0.02,-104.75 -0.95,-100.73 458.67 80
